FENGYUN 1C DEB, 29802

Orbit data source: Space-Track

FENGYUN 1C DEB, 29802 is space debris in SSO originally from a launch on Mon, 10 May 1999 UTC launched from the Taiyaun Space Center, China (TSC). Fengyun 1C debris stems from the Chinese weather satellite Fengyun-1C, which was intentionally destroyed by a Chinese anti-satellite missile in 2007. This event dramatically increased the amount of space debris, with thousands of trackable fragments posing hazards to satellites and human spaceflight. The Fengyun 1C debris cloud has become a focal point in discussions about space sustainability and the need for international regulations to prevent the creation of new debris.

Loading next visibility...
Identifier
29802, 1999-025CU
Orbit
SSO
Country
Flag of CNCN / PRC
Related business
Manufacturer
Unknown
Mission
Spacecraft
Bus & Motor
Unknown
Mass
Unknown
Launch date (UTC)
1999-05-10 (27 years ago)
Launch vehicle
Unknown
Launch site
Taiyaun Space Center, China (TSC)
Object type
Payload
Rocket body
Debris
Shape & HBR
Unknown shape, 0.1 m
Radar Cross Section
Medium (>0.1 m² and <1 m²)

Expand to show TLE details & history
Last TLE update: 2 days ago

TLE from 2 days ago
0 FENGYUN 1C DEB
1 29802U 99025CU  26256.83741054  .00010844  00000-0  18090-2 0  9996
2 29802  98.6340  24.9350 0033188 201.0122 319.6568 14.69783150 25039
Epoch: 2026-09-13T20:05Z
TLE epoch observation values (Epoch: 2026-09-13T20:05:52.270Z)
Latitude
19.34753°
Longitude
-86.31945°
Altitude
646.493 km
Speed
7.546 km/s
True Right ascension
13h 51m 53s
True Declination
19° 14' 19"
Sunlit
Object was in daylight at epoch
Visualization orbit readout
Latitude
Unknown
Longitude
Unknown
Altitude
Unknown
Speed
Unknown
Apparent Right ascension
Unknown
Apparent Declination
Unknown
Sunlit
N/A
Visualization observer readout
Local Sidereal Time
02:57:49
Azimuth
Unknown
Elevation
Unknown
Doppler factor
Unknown
Orbital elements
Apogee altitude
682.203 km
Perigee altitude
635.495 km
Semi-major axis
7,036.986 km
Eccentricity
0.00332
Inclination
98.634°
RAAN
24.935°
Arg. of periapsis
201.0122°
True anomaly
319.40982°
Mean anomaly
319.6568°
Eccentric anomaly
319.53339°
Mean motion
3.67674 °/min
Orbital period
97.91 mins
BSTAR
0.001809
Loading maneuver chart data...
Computing Atmospheric mass density...
Loading historical data...
Loading historical data...
Loading historical data...
Loading historical data...
Loading historical data...
Loading historical data...
Loading historical data...

Documentation

Showing up to 5 results
|